Temperature
22 23 23 22 22 22 22 22 21 22 22 22 21 21 21 21 20 19 19 18 17 17 16 16 15 15 15 14 14 14 14 14 14 14 14 14 14 14 13 13 13 13 13 13
21 22 22 22 22 22 22 22 22 22 22 22 22 21 21 20 20 19 19 18 17 17 16 15 15 14 14 14 14 13 13 13 13 13 13 13 13 13 13 13 13 13 12 12
20 21 21 21 22 22 22 22 22 21 21 22 21 21 20 20 19 19 18 17 17 16 16 15 15 14 14 14 13 13 13 13 13 13 12 13 13 12 12 12 12 12 12 12
20 20 19 21 22 22 22 22 22 22 22 21 21 20 19 19 18 18 17 17 16 16 15 15 14 14 14 13 13 13 12 12 12 12 12 12 12 12 12 12 12 12 12 11
19 19 20 21 22 22 21 21 22 21 21 21 20 19 19 18 18 17 17 16 16 15 15 14 14 14 13 13 12 12 12 12 12 12 12 12 12 12 12 11 11 11 11 11
18 18 18 20 21 21 21 19 20 20 20 20 19 18 17 17 17 16 16 15 15 15 14 14 14 13 13 12 12 12 12 12 12 12 12 12 12 11 11 11 11 11 11 10
17 17 19 20 20 20 18 18 19 19 19 19 18 18 17 16 16 15 15 14 14 14 14 13 13 13 12 12 12 12 11 11 11 11 11 11 11 11 11 11 11 10 10 10
18 17 18 19 19 19 18 19 19 18 18 17 17 17 16 15 15 14 14 14 13 13 13 13 12 12 12 12 12 11 11 11 11 11 11 11 11 10 10 10 10 10 10 10
19 18 18 18 18 18 18 18 18 17 17 16 16 16 15 15 14 14 13 13 13 13 12 12 12 12 12 12 11 11 11 11 11 11 10 10 10 10 10 10 10 9 9 9
18 18 19 18 18 17 17 17 17 16 16 16 15 15 14 14 14 13 13 12 12 12 12 12 12 11 11 11 11 11 11 10 10 10 10 10 9 9 9 9 9 9 9 9
17 18 18 17 17 16 16 16 16 15 15 15 14 14 14 13 13 13 12 12 12 12 11 11 11 11 11 11 11 10 10 10 10 9 9 9 9 9 9 9 8 8 8 8
16 17 17 16 16 15 15 15 15 15 14 14 14 13 13 13 12 12 12 11 11 11 11 11 11 11 10 10 10 10 9 9 9 9 9 8 8 8 8 8 8 8 8 8
16 15 15 15 15 15 14 14 14 14 14 13 13 13 12 12 12 11 11 11 11 11 11 10 10 10 10 10 10 9 9 9 8 8 8 8 8 8 8 7 7 7 7 7
14 14 14 14 14 14 14 14 13 13 13 13 12 12 12 12 11 11 11 11 10 10 10 10 10 9 9 9 9 9 9 8 8 8 8 8 8 7 7 7 7 7 7 6
14 14 14 13 13 13 13 13 13 12 12 12 12 12 11 11 11 10 10 10 10 10 10 9 9 9 9 9 9 8 8 8 8 8 7 7 7 7 7 6 6 6 6 6
13 13 13 13 12 12 12 12 12 12 12 11 11 11 11 10 10 10 10 9 9 9 9 9 9 9 8 8 8 8 8 8 7 7 7 7 7 6 6 6 6 6 6 6
12 12 12 12 12 12 12 11 11 11 11 11 10 10 10 10 9 9 9 9 9 9 9 8 8 8 8 8 8 8 7 7 7 7 7 6 6 6 6 6 5 5 5 5
11 11 11 11 11 11 11 11 11 11 10 10 10 10 9 9 9 9 9 8 8 8 8 8 8 8 8 8 7 7 7 7 6 6 6 6 6 6 5 5 5 5 5 5
11 11 10 10 10 10 10 10 10 10 10 10 9 9 9 9 8 8 8 8 8 8 8 8 7 7 7 7 7 7 6 6 6 6 6 5 5 5 5 5 5 5 5 4
10 10 10 10 10 10 10 9 9 9 9 9 9 9 8 8 8 8 8 8 7 7 7 7 7 6 6 6 6 6 6 6 5 5 5 5 5 5 5 4 4 4 4 4
9 9 9 9 9 9 9 9 9 9 9 8 8 8 8 8 8 7 7 7 7 7 7 6 6 6 6 6 6 6 5 5 5 5 5 5 4 4 4 4 4 4 4 4
9 9 9 9 9 8 8 8 8 8 8 8 8 7 7 7 7 7 7 7 6 6 6 6 6 6 5 5 5 5 5 4 4 4 4 4 4 4 4 4 4 4 4 4
8 8 8 8 8 8 8 8 8 8 7 7 7 7 7 7 6 6 6 6 6 6 5 5 5 5 5 5 4 4 4 4 4 4 4 4 4 4 4 3 3 3 3 3
8 8 8 8 7 7 7 7 7 7 7 6 6 6 6 6 6 6 6 6 5 5 5 5 4 4 4 4 4 3 3 3 3 3 3 3 3 3 3 3 3 3 3 3
7 7 7 7 7 7 7 7 6 6 6 6 6 5 5 5 5 5 5 5 5 5 4 4 4 4 4 3 3 3 3 3 3 3 3 3 3 3 3 3 3 3 3 3
7 7 6 6 6 6 6 6 6 6 5 5 5 5 5 5 5 5 4 4 4 4 4 4 4 3 3 3 3 3 2 2 2 2 2 2 2 2 2 2 2 2 2 2
6 6 6 6 6 5 5 5 5 5 5 4 4 4 4 4 4 4 4 3 3 3 3 3 3 3 3 3 2 2 2 2 2 2 2 2 2 2 2 2 2 2 2 2
Wind_Speed
12 11 9 10 11 11 12 11 11 9 6 3 4 3 4 4 4 4 4 4 4 4 3 3 2 2 2 2 1 1 1 1 1 1 1 0 1 1 1 1 1 2 3 2
13 12 12 12 12 12 12 12 12 10 7 2 1 1 2 2 3 4 3 3 3 4 4 4 3 2 2 2 1 1 1 1 1 1 1 0 1 1 1 1 1 1 2 3
11 11 10 12 10 10 8 8 8 9 5 1 2 1 1 1 1 2 2 2 2 2 3 3 3 2 2 1 1 1 1 1 2 1 1 1 0 1 1 1 1 1 2 2
8 10 11 5 2 4 6 6 5 5 2 0 1 2 1 1 1 1 1 2 2 1 1 1 2 2 2 2 1 1 0 0 1 2 2 1 1 1 1 1 2 1 1 2
6 9 9 6 4 3 5 6 3 3 2 1 2 1 1 2 2 2 1 1 1 1 1 1 1 2 2 2 2 1 0 0 1 1 2 2 2 2 1 1 1 1 2 2
7 7 7 2 2 3 3 4 1 1 2 1 1 2 1 3 4 3 3 2 2 1 1 1 2 1 2 2 2 1 0 1 1 0 1 2 3 2 1 1 1 1 1 1
10 9 6 1 2 0 3 1 4 4 3 2 1 1 3 4 4 4 3 3 2 2 1 1 2 1 1 2 2 1 0 1 0 0 0 1 1 1 1 1 1 1 1 1
8 9 5 3 1 0 3 4 4 4 4 4 3 3 4 4 4 3 3 2 2 1 1 1 2 2 1 1 1 1 1 1 1 1 1 2 1 0 1 1 1 0 1 1
4 2 3 2 2 3 4 3 3 3 3 3 2 2 2 2 2 2 1 1 1 1 1 1 1 2 1 1 1 2 2 1 1 1 2 2 2 1 1 1 1 1 1 1
5 3 1 1 1 2 3 3 4 3 2 2 1 1 1 0 0 1 0 0 1 1 1 1 1 1 1 1 1 2 2 2 1 1 2 2 2 1 1 1 0 1 1 1
8 5 3 1 1 2 2 2 3 2 1 1 1 1 1 1 1 0 0 0 1 1 1 1 1 1 2 1 1 1 1 2 2 1 1 1 2 2 1 1 2 1 0 0
6 4 4 2 3 2 2 3 3 2 2 1 1 1 2 2 1 1 1 1 1 1 2 2 2 2 2 2 1 1 1 1 1 1 1 1 2 2 2 2 2 2 1 1
4 4 4 4 4 3 3 4 3 3 2 2 2 1 2 1 1 1 1 1 2 2 2 2 2 2 2 2 1 2 2 1 1 1 1 1 1 1 1 0 1 1 1 1
4 4 5 4 4 3 4 4 3 3 3 2 2 1 1 1 1 1 1 1 2 2 2 2 2 2 2 2 2 1 1 1 1 1 0 0 1 1 1 1 1 2 2 2
4 5 5 4 3 4 3 3 3 3 2 2 1 1 1 1 1 1 1 1 1 2 2 1 2 2 3 3 2 2 2 1 1 0 1 1 1 1 1 1 1 1 1 1
4 4 4 4 4 4 4 4 4 4 2 2 1 1 1 1 2 1 1 1 2 2 2 2 2 2 3 3 3 2 2 2 2 1 1 1 1 1 1 1 2 1 1 1
4 4 4 4 4 4 4 4 4 3 2 2 2 1 2 2 2 2 2 2 2 2 1 1 1 1 2 3 3 2 2 2 3 2 2 2 2 2 2 2 2 2 2 2
4 4 4 5 4 3 3 3 3 3 2 2 1 2 2 3 3 2 2 2 2 2 1 1 0 1 2 2 2 2 2 2 2 2 2 2 2 2 2 3 3 3 2 2
3 3 3 3 3 3 3 2 3 3 2 2 2 2 3 3 3 2 2 2 2 2 1 1 1 2 1 2 1 1 2 2 2 2 2 2 3 3 3 3 3 3 2 2
1 2 2 2 2 2 2 2 2 2 2 2 2 3 3 3 2 2 3 3 2 2 1 2 2 2 1 1 2 2 2 2 2 2 2 2 2 3 3 3 3 3 3 3
1 1 2 2 2 2 2 2 2 2 2 2 2 3 3 3 2 2 2 2 2 2 2 3 2 1 1 1 3 2 2 3 3 3 3 3 3 2 3 3 3 3 2 2
1 2 2 2 2 2 2 2 2 2 1 2 2 3 2 3 3 2 3 2 1 2 2 2 2 1 1 1 2 2 3 3 3 3 3 3 3 3 3 3 3 3 3 3
2 2 2 2 3 3 3 3 2 2 2 2 2 2 2 2 2 2 2 1 2 2 2 1 2 2 2 2 2 2 3 3 3 3 3 4 4 3 3 4 3 3 3 3
3 3 3 3 2 3 3 3 3 2 2 2 2 2 2 2 2 1 0 1 2 2 1 1 3 3 3 2 2 3 3 3 3 3 3 3 3 3 3 3 3 3 4 4
3 3 3 3 3 2 3 3 3 2 2 1 2 2 2 1 1 1 0 1 1 1 1 2 4 5 3 3 3 3 3 4 4 3 3 3 4 4 4 3 3 4 4 4
3 3 3 3 3 2 2 2 2 2 1 1 2 1 1 1 1 1 0 1 2 2 2 2 2 3 3 3 3 3 3 4 4 4 4 4 4 3 3 3 4 3 3 4
3 3 2 2 2 2 2 2 1 1 1 2 2 1 1 1 1 1 2 1 1 2 2 2 2 2 2 3 3 3 3 3 3 3 3 3 3 3 3 4 3 3 3 3
Wind_Direction
276 286 279 265 260 255 247 252 263 276 275 229 200 180 156 159 161 167 173 169 163 168 171 165 170 186 173 141 127 123 143 172 213 215 118 158 199 185 221 182 187 183 173 168
275 270 269 272 261 255 251 252 259 269 275 283 230 170 178 183 173 182 180 177 177 178 171 177 186 194 180 144 144 134 153 198 171 126 124 184 198 183 213 181 182 191 177 171
272 277 270 260 257 252 249 251 257 264 269 210 202 174 149 187 195 183 162 141 178 193 178 181 185 173 164 163 148 134 164 194 154 147 170 196 189 195 189 174 169 190 194 178
271 273 259 251 261 262 260 263 268 279 295 94 80 107 97 83 109 153 141 158 175 176 180 185 176 159 157 147 132 132 190 220 169 168 181 189 178 212 191 177 173 194 210 205
262 267 270 259 259 266 256 265 281 289 325 35 57 94 122 95 96 82 100 119 132 149 175 182 134 126 140 145 143 139 102 326 244 194 176 174 180 205 206 179 194 193 208 214
256 264 265 286 38 1 294 256 14 359 6 38 47 251 143 82 76 69 77 84 93 106 107 115 100 97 143 150 139 144 234 285 301 241 175 185 186 199 193 164 216 208 214 208
247 257 263 359 84 325 261 3 37 36 37 24 329 8 72 75 76 71 70 72 75 95 106 111 119 133 170 158 162 171 104 33 27 50 166 157 169 172 155 153 180 218 224 225
235 244 244 97 134 308 24 29 25 38 42 25 27 43 58 65 79 86 83 82 80 83 97 106 130 152 177 171 160 118 90 74 66 59 70 77 91 150 164 141 152 203 257 258
256 255 102 113 60 30 5 351 12 22 35 37 34 38 54 56 72 85 92 121 130 127 124 121 139 152 175 182 138 141 135 118 94 86 86 98 107 99 90 108 141 237 267 261
270 255 173 142 67 33 1 353 7 20 23 9 5 34 35 46 117 135 130 119 132 120 143 172 176 160 148 118 133 147 149 131 104 88 81 95 105 103 87 82 99 218 263 279
268 272 265 231 44 27 347 345 349 353 341 319 317 294 287 266 245 203 204 261 160 165 198 213 207 150 121 121 129 143 131 126 118 105 114 115 104 95 95 79 105 136 227 274
266 302 309 323 8 3 328 309 306 304 303 300 292 281 275 268 258 236 213 210 215 209 203 200 191 153 125 135 143 135 120 114 119 113 124 137 135 102 96 96 83 97 114 126
303 325 318 312 317 327 311 299 301 299 292 289 275 269 267 261 255 252 213 199 219 218 207 207 188 150 140 151 154 151 136 125 115 100 121 160 141 142 132 350 345 333 304 300
325 314 291 290 300 307 299 295 287 282 284 283 281 265 250 255 248 247 233 223 222 214 199 198 175 160 159 170 173 171 145 127 128 136 183 188 169 165 159 159 312 319 298 270
279 280 280 289 291 287 289 287 280 274 276 285 284 263 237 228 236 240 232 233 223 209 196 187 174 174 174 178 177 172 149 137 147 177 234 202 191 179 179 184 226 279 327 310
279 283 287 281 276 278 274 267 267 268 269 275 281 277 270 246 232 222 222 230 229 218 202 194 198 189 182 181 178 175 168 173 177 218 243 217 203 197 211 218 221 225 244 276
270 273 277 276 272 273 277 278 279 278 273 270 269 269 268 259 238 220 219 223 236 236 198 195 203 193 181 176 175 182 181 191 202 220 233 221 207 212 227 229 227 223 222 227
270 273 277 277 276 280 281 284 285 285 277 270 262 254 251 246 239 232 219 213 226 221 197 161 136 231 187 171 186 190 189 196 205 214 222 227 221 221 225 229 234 240 234 229
270 282 289 284 278 285 288 284 289 286 280 266 256 254 255 252 244 238 224 212 216 224 206 127 231 229 188 151 184 219 210 214 227 236 233 238 232 224 227 232 235 237 234 228
292 296 296 292 282 279 287 284 281 282 277 263 265 267 264 256 244 240 224 221 196 196 175 158 202 208 193 193 231 234 227 226 228 234 239 237 238 230 228 232 236 237 234 232
303 302 297 290 292 291 287 284 280 278 290 283 269 270 275 270 251 244 230 239 211 168 178 188 194 173 175 240 248 247 239 237 233 231 235 240 245 243 238 239 242 242 240 240
288 292 292 298 300 296 294 294 285 274 278 281 279 274 275 278 270 252 237 222 190 168 189 184 162 176 206 249 241 247 249 253 247 238 236 235 234 238 242 245 244 243 242 242
292 292 296 296 295 301 308 305 293 283 276 272 274 278 276 275 277 266 259 213 159 181 199 167 175 201 241 247 249 248 254 259 259 250 243 240 237 236 238 241 240 242 244 247
298 299 296 297 299 295 291 293 292 286 279 280 273 271 269 269 271 272 233 126 128 158 192 196 207 227 241 245 247 251 255 258 259 261 259 252 248 245 243 242 244 250 252 255
283 283 281 284 287 288 293 299 300 294 293 285 276 270 264 246 246 287 45 140 169 189 232 255 251 247 244 252 253 256 258 260 263 267 264 264 260 254 250 248 243 247 252 254
273 273 270 271 277 279 278 279 282 289 288 281 281 285 290 282 258 248 249 215 204 231 243 256 253 243 247 257 261 263 262 267 266 260 259 259 258 254 254 258 261 255 254 255
276 277 279 280 278 275 281 285 282 282 289 288 290 298 296 292 281 260 250 248 239 235 238 249 257 249 248 252 258 261 263 264 263 259 257 254 254 253 256 258 259 266 272 269
Height
1475 1473 1473 1475 1475 1475 1477 1478 1483 1479 1477 1476 1477 1478 1480 1483 1485 1487 1489 1491 1492 1494 1495 1496 1497 1498 1498 1498 1498 1498 1499 1499 1499 1500 1501 1502 1502 1503 1504 1505 1506 1507 1508 1508
1477 1472 1471 1472 1471 1471 1471 1472 1473 1474 1474 1471 1474 1476 1479 1481 1483 1485 1487 1489 1490 1492 1493 1494 1495 1495 1496 1496 1496 1496 1496 1496 1497 1497 1498 1498 1499 1500 1501 1502 1503 1504 1505 1506
1481 1473 1473 1476 1468 1467 1468 1467 1469 1474 1473 1470 1473 1475 1478 1479 1481 1483 1485 1486 1488 1489 1490 1491 1492 1492 1493 1493 1494 1494 1494 1494 1495 1495 1495 1496 1496 1497 1498 1498 1500 1501 1502 1503
1481 1479 1487 1471 1460 1461 1464 1464 1464 1466 1467 1469 1471 1474 1477 1478 1480 1481 1483 1484 1485 1487 1487 1488 1489 1489 1490 1491 1491 1491 1492 1492 1492 1492 1493 1493 1494 1494 1495 1496 1497 1498 1499 1500
1482 1483 1474 1465 1460 1460 1464 1465 1463 1465 1466 1469 1471 1474 1476 1478 1479 1480 1481 1483 1484 1485 1485 1486 1487 1487 1488 1488 1489 1489 1489 1489 1489 1490 1490 1490 1491 1492 1492 1493 1494 1495 1496 1497
1481 1485 1482 1469 1461 1460 1464 1469 1464 1465 1467 1469 1471 1476 1477 1477 1478 1479 1480 1481 1482 1483 1483 1484 1484 1485 1486 1486 1486 1486 1487 1487 1487 1487 1487 1488 1488 1489 1490 1491 1492 1493 1493 1494
1481 1481 1472 1464 1463 1464 1474 1473 1467 1467 1468 1470 1472 1474 1476 1476 1477 1478 1479 1479 1480 1481 1481 1482 1482 1483 1483 1484 1484 1484 1485 1485 1485 1484 1485 1486 1486 1487 1487 1488 1489 1490 1491 1492
1474 1478 1475 1464 1464 1468 1470 1468 1468 1468 1470 1472 1473 1474 1474 1475 1476 1477 1477 1478 1478 1479 1480 1480 1481 1481 1481 1481 1482 1482 1483 1483 1483 1482 1483 1483 1484 1484 1485 1486 1487 1487 1488 1489
1466 1468 1465 1464 1465 1467 1468 1469 1469 1469 1471 1472 1473 1474 1474 1475 1476 1476 1476 1477 1477 1478 1478 1478 1479 1479 1479 1480 1480 1480 1481 1481 1481 1481 1481 1481 1481 1482 1483 1484 1484 1485 1486 1486
1462 1461 1462 1463 1465 1467 1468 1468 1469 1470 1471 1471 1472 1473 1474 1474 1474 1475 1475 1475 1475 1476 1476 1476 1477 1477 1478 1478 1478 1479 1479 1479 1479 1479 1479 1480 1480 1480 1481 1481 1481 1482 1483 1483
1461 1461 1462 1462 1464 1466 1467 1468 1469 1469 1470 1470 1471 1472 1472 1472 1473 1473 1473 1473 1473 1473 1474 1474 1474 1475 1475 1476 1476 1476 1477 1477 1477 1477 1478 1478 1478 1478 1478 1479 1480 1480 1480 1481
1462 1462 1462 1463 1464 1464 1466 1467 1467 1468 1468 1469 1469 1470 1470 1470 1471 1471 1470 1471 1471 1471 1471 1471 1472 1472 1472 1473 1473 1474 1474 1475 1475 1475 1476 1476 1476 1476 1477 1478 1478 1478 1478 1478
1459 1460 1461 1462 1463 1463 1464 1465 1465 1466 1466 1467 1467 1467 1467 1468 1468 1468 1468 1468 1468 1468 1468 1469 1469 1469 1470 1470 1471 1472 1472 1473 1473 1473 1474 1474 1474 1474 1474 1475 1475 1475 1475 1475
1458 1459 1459 1460 1461 1462 1462 1462 1463 1463 1464 1464 1464 1464 1465 1465 1465 1465 1465 1465 1465 1465 1465 1466 1467 1467 1467 1468 1469 1469 1470 1470 1471 1471 1471 1471 1471 1472 1472 1472 1472 1472 1472 1472
1457 1457 1458 1458 1459 1459 1460 1460 1460 1460 1461 1461 1461 1461 1462 1462 1462 1462 1462 1462 1462 1463 1463 1463 1464 1464 1464 1465 1466 1466 1467 1468 1468 1468 1469 1469 1469 1469 1469 1469 1469 1469 1469 1470
1455 1455 1455 1456 1456 1457 1457 1457 1457 1458 1458 1458 1458 1459 1459 1459 1459 1459 1460 1460 1460 1460 1460 1460 1461 1461 1462 1462 1463 1464 1465 1465 1465 1466 1466 1466 1466 1466 1466 1466 1466 1466 1466 1466
1452 1452 1453 1453 1453 1454 1454 1454 1455 1455 1455 1455 1455 1455 1456 1456 1456 1456 1457 1457 1457 1457 1457 1457 1458 1458 1459 1459 1460 1461 1461 1462 1462 1463 1463 1463 1463 1463 1463 1463 1463 1463 1463 1464
1450 1450 1450 1451 1451 1451 1451 1452 1452 1452 1452 1452 1452 1452 1453 1453 1453 1453 1453 1454 1454 1454 1454 1455 1455 1456 1456 1456 1457 1458 1458 1459 1459 1459 1459 1459 1459 1459 1460 1460 1460 1460 1460 1460
1447 1447 1448 1448 1448 1449 1449 1449 1449 1449 1449 1449 1449 1449 1449 1450 1450 1450 1450 1450 1451 1451 1451 1451 1452 1452 1453 1453 1454 1454 1455 1455 1455 1456 1456 1456 1456 1456 1456 1456 1457 1457 1456 1456
1445 1445 1445 1445 1446 1446 1446 1446 1447 1447 1447 1447 1447 1447 1447 1447 1447 1447 1447 1447 1447 1448 1448 1448 1448 1449 1449 1449 1450 1450 1451 1451 1452 1452 1452 1452 1452 1452 1452 1452 1453 1453 1453 1452
1443 1443 1443 1443 1444 1444 1444 1444 1444 1444 1444 1444 1444 1444 1444 1443 1444 1444 1444 1444 1444 1444 1444 1444 1445 1445 1445 1446 1446 1446 1447 1447 1447 1448 1448 1448 1448 1448 1448 1448 1448 1448 1448 1448
1442 1442 1442 1442 1442 1442 1442 1442 1442 1441 1441 1441 1441 1441 1440 1440 1440 1441 1441 1441 1441 1441 1441 1441 1441 1441 1441 1441 1442 1442 1442 1443 1443 1443 1443 1444 1444 1444 1444 1444 1444 1444 1444 1444
1441 1440 1440 1440 1440 1439 1439 1439 1439 1439 1438 1438 1438 1437 1437 1437 1437 1437 1437 1437 1437 1437 1437 1437 1437 1437 1437 1437 1437 1437 1438 1438 1439 1439 1439 1439 1439 1439 1439 1439 1439 1439 1438 1438
1439 1439 1438 1438 1438 1437 1437 1436 1436 1436 1435 1435 1434 1434 1434 1434 1434 1434 1433 1433 1433 1433 1433 1433 1434 1434 1434 1433 1433 1433 1433 1433 1434 1434 1434 1434 1434 1434 1434 1434 1434 1433 1433 1433
1436 1436 1436 1435 1435 1434 1434 1434 1433 1433 1432 1432 1431 1431 1431 1431 1430 1430 1430 1429 1429 1429 1429 1429 1430 1430 1429 1429 1429 1429 1429 1429 1429 1429 1429 1429 1429 1429 1428 1428 1428 1428 1427 1427
1433 1433 1433 1432 1432 1431 1431 1430 1430 1429 1429 1428 1428 1428 1428 1427 1427 1427 1426 1426 1426 1426 1426 1425 1425 1425 1425 1424 1424 1424 1424 1424 1424 1423 1423 1423 1423 1423 1423 1422 1422 1422 1421 1421
1430 1430 1429 1429 1428 1428 1428 1427 1427 1426 1426 1426 1425 1425 1424 1424 1423 1423 1423 1423 1422 1422 1422 1421 1421 1420 1420 1420 1420 1419 1419 1419 1418 1418 1418 1417 1417 1417 1417 1416 1416 1415 1415 1414